Weather History for KARB - March, 2011

Change the Weather History Date:

Tuesday, March 29, 2011

  Actual Average Record
Temperature  
Mean Temperature 31 °F -  
Max Temperature 45 °F 48 °F 61 °F (2005)
Min Temperature 17 °F 28 °F 12 °F (2015)
Degree Days  
Heating Degree Days 34    
Moisture  
Dew Point 16 °F    
Average Humidity 60    
Maximum Humidity 96    
Minimum Humidity 26    
Precipitation  
Precipitation 0.00 in - - ()
Sea Level Pressure  
Sea Level Pressure 30.29 in    
Wind  
Wind Speed 2 mph (North)    
Max Wind Speed 8 mph    
Max Gust Speed -    
Visibility 10 miles    
Events      
Averages and records for this station are not official NWS values.
T = Trace of Precipitation, MM = Missing Value Source: NWS Daily Summary

Daily Weather History Graph

Daily Weather History Graph

Search for Another Location

Airport or City:

Trip Planner

Search our weather history database for the weather conditions in past years. The results will help you decide how hot, cold, wet, or windy it might be!

Date:

Astronomy

Mar. 29, 2011 Rise Set
Actual Time 7:23 AM EDT 7:57 PM EDT
Civil Twilight 6:55 AM EDT 8:25 PM EDT
Nautical Twilight 6:21 AM EDT 8:58 PM EDT
Astronomical Twilight 5:47 AM EDT 9:33 PM EDT
Moon 4:52 AM EDT (3/29) 3:32 PM EDT (3/29)
Length of Visible Light 13h 30m
Length of Day
12h 33m
Waning Crescent, 21% of the Moon is Illuminated
Mar 29
Waning Crescent
Apr 3
New
Apr 11
First Quarter
Apr 17
Full
Apr 24
Last Quarter

Hourly Weather History & Observations

Time (EDT) Temp. Windchill Dew Point Humidity Pressure Visibility Wind Dir Wind Speed Gust Speed Precip Events Conditions
12:53 AM 21.0 °F - 19.0 °F 92% 30.27 in 10.0 mi Calm Calm - N/A   Clear
1:53 AM 19.9 °F - 15.1 °F 81% 30.27 in 10.0 mi Calm Calm - N/A   Clear
2:53 AM 19.0 °F - 18.0 °F 96% 30.28 in 10.0 mi Calm Calm - N/A   Clear
3:53 AM 17.1 °F - 15.1 °F 92% 30.29 in 10.0 mi Calm Calm - N/A   Clear
4:53 AM 17.1 °F - 14.0 °F 88% 30.30 in 10.0 mi Calm Calm - N/A   Clear
5:53 AM 19.0 °F - 17.1 °F 92% 30.30 in 10.0 mi Calm Calm - N/A   Clear
6:53 AM 17.1 °F - 12.0 °F 81% 30.31 in 10.0 mi Calm Calm - N/A   Clear
7:53 AM 17.1 °F - 15.1 °F 92% 30.32 in 10.0 mi Calm Calm - N/A   Clear
8:53 AM 27.0 °F 19.5 °F 18.0 °F 69% 30.34 in 10.0 mi North 6.9 mph - N/A   Clear
9:53 AM 32.0 °F 25.6 °F 18.0 °F 56% 30.35 in 10.0 mi North 6.9 mph - N/A   Clear
10:53 AM 34.0 °F 28.8 °F 15.1 °F 46% 30.35 in 10.0 mi NW 5.8 mph - N/A   Clear
11:53 AM 37.0 °F 33.3 °F 15.1 °F 41% 30.35 in 10.0 mi West 4.6 mph - N/A   Clear
12:53 PM 37.9 °F - 15.1 °F 39% 30.34 in 10.0 mi Calm Calm - N/A   Clear
1:53 PM 41.0 °F 39.0 °F 15.1 °F 35% 30.31 in 10.0 mi Variable 3.5 mph - N/A   Clear
2:53 PM 42.1 °F - 12.9 °F 31% 30.29 in 10.0 mi Calm Calm - N/A   Clear
3:53 PM 43.0 °F 38.2 °F 10.9 °F 27% 30.27 in 10.0 mi NNE 8.1 mph - N/A   Clear
4:53 PM 45.0 °F 42.6 °F 12.0 °F 26% 30.25 in 10.0 mi NE 4.6 mph - N/A   Clear
5:53 PM 44.1 °F 41.5 °F 12.0 °F 27% 30.25 in 10.0 mi North 4.6 mph - N/A   Clear
6:53 PM 43.0 °F - 10.0 °F 26% 30.25 in 10.0 mi Calm Calm - N/A   Clear
7:53 PM 39.0 °F 34.8 °F 14.0 °F 36% 30.25 in 10.0 mi NE 5.8 mph - N/A   Clear
8:53 PM 35.1 °F 30.1 °F 19.0 °F 52% 30.26 in 10.0 mi ESE 5.8 mph - N/A   Clear
9:53 PM 30.0 °F - 19.9 °F 66% 30.27 in 10.0 mi Calm Calm - N/A   Clear
10:53 PM 30.9 °F - 19.9 °F 64% 30.27 in 10.0 mi Calm Calm - N/A   Clear
11:53 PM 28.0 °F - 21.0 °F 75% 30.27 in 10.0 mi Calm Calm - N/A   Clear